Lid_Strength_Index
13 16 17 14 14 16 17 18 18 16 14 15 15 15 14 13 13 12 11 11 11 11 9 9 9 9 10 10 10 10 10 9 9 9 10 10 10 9 10 9 9 10 10 11
15 18 15 15 15 15 16 17 17 15 14 16 16 16 13 13 12 12 11 11 11 11 10 10 10 10 10 10 10 10 10 10 9 9 9 9 9 10 10 10 10 10 11 11
16 15 14 15 16 16 17 18 17 17 16 16 17 17 16 14 14 12 12 11 11 11 11 11 11 11 11 11 11 11 11 11 10 10 10 13 12 12 12 12 11 11 11 12
16 15 15 17 17 15 17 15 16 17 18 20 17 20 16 13 13 13 13 12 13 12 12 11 11 11 11 11 11 11 11 11 11 11 11 11 11 12 12 11 11 12 12 12
16 16 17 17 15 15 16 15 16 17 18 19 19 20 18 16 16 14 12 12 12 12 12 12 12 11 12 11 12 12 11 11 11 11 11 11 11 11 13 12 12 12 13 12
16 15 15 15 15 15 15 16 17 18 19 22 19 19 19 17 15 15 13 13 12 12 12 12 12 12 12 12 13 13 13 13 12 12 11 12 11 12 13 13 13 14 14 14
18 17 16 15 16 15 15 18 21 22 22 21 19 20 17 15 14 13 13 12 13 13 13 13 12 12 12 13 13 14 14 13 13 12 12 12 12 12 13 13 13 14 14 14
19 17 16 15 15 16 16 16 18 22 23 18 20 20 17 14 13 14 13 13 13 13 13 13 13 13 13 13 13 14 15 14 14 13 13 13 13 12 13 13 13 13 13 14
16 16 16 15 15 15 17 17 15 17 21 22 18 16 14 15 14 14 14 13 14 14 13 14 13 13 14 14 13 14 14 14 14 14 14 14 14 13 13 14 14 13 13 13
13 16 15 15 15 16 14 14 17 17 21 22 18 19 17 14 12 14 15 14 14 13 14 14 14 14 13 13 13 13 13 13 13 14 14 14 14 13 13 14 15 14 14 14
12 13 14 13 16 15 16 16 15 15 16 20 21 18 13 14 16 16 16 15 15 15 15 14 14 13 13 12 12 13 13 13 13 13 13 14 14 14 14 15 14 14 14 14
10 13 16 14 11 12 13 13 13 16 16 15 15 15 10 15 15 16 16 16 15 15 15 15 14 14 14 13 13 13 13 13 13 13 14 14 14 14 15 15 14 14 14 15
10 14 18 16 14 13 14 13 12 12 13 17 19 17 10 11 15 16 16 16 16 15 14 14 14 14 14 14 13 13 13 13 13 14 14 14 14 14 15 15 14 14 14 15
8 13 15 18 15 13 15 13 12 13 17 17 16 15 12 11 14 16 15 15 15 15 15 14 14 14 13 13 13 13 13 13 13 13 14 14 14 14 14 14 14 15 15 15
10 14 13 12 12 13 14 15 14 15 14 16 14 14 12 14 16 16 15 14 14 14 15 14 14 13 13 14 14 13 13 13 13 13 13 13 12 13 14 14 14 14 15 15
11 15 14 18 14 13 15 15 15 14 14 15 14 15 16 15 15 16 17 16 15 15 16 15 14 13 14 15 15 14 14 14 13 13 13 13 13 13 13 14 14 14 14 15
14 15 17 17 14 17 19 17 16 15 15 15 18 18 18 18 15 14 15 14 14 15 14 14 13 13 13 15 15 15 14 14 14 14 13 13 13 14 14 14 15 15 15 15
14 15 21 21 24 29 17 15 14 14 14 16 18 17 15 14 13 13 13 13 13 13 13 13 13 13 13 13 14 15 15 15 15 14 14 12 13 14 15 15 15 14 15 15
12 15 25 26 28 20 16 16 17 18 18 16 17 15 14 13 13 14 12 12 12 12 11 11 11 12 12 13 13 14 14 14 15 15 14 13 13 16 17 16 15 15 15 15
13 13 18 31 28 29 18 17 15 15 23 20 18 17 16 13 19 16 13 12 11 11 11 11 11 11 12 13 13 13 13 13 14 14 14 13 15 16 17 16 14 14 14 15
25 24 18 19 20 20 15 13 13 23 20 15 16 14 13 14 13 11 11 11 11 12 12 11 12 13 13 12 13 14 14 14 14 14 14 15 15 16 15 15 16 15 15 14
19 25 28 30 29 25 15 14 17 14 11 12 13 12 12 11 10 10 11 11 12 12 12 12 13 13 13 13 14 15 15 14 15 15 16 17 17 17 17 18 17 15 14 16
20 17 20 19 20 14 13 12 10 10 11 11 11 11 11 11 10 11 12 13 12 12 12 12 13 13 13 12 13 15 15 15 16 18 19 19 19 18 19 19 18 17 14 14
14 13 15 15 13 12 11 10 9 9 10 9 10 11 11 11 11 12 12 12 12 12 12 12 13 14 14 13 13 14 15 16 18 20 20 20 21 20 20 19 19 19 16 14
13 14 15 14 12 11 10 10 9 9 9 10 11 11 11 12 12 12 13 13 13 13 13 13 14 14 15 15 16 16 17 18 20 20 21 22 21 22 21 20 19 18 17 14
11 13 14 15 11 10 11 9 10 10 11 12 12 12 11 12 13 14 15 14 14 14 15 16 16 17 18 19 19 19 19 20 22 23 22 22 22 22 22 22 21 17 16 14